Weslaco, TX

5:39 AM CDT on May 25, 2017 (GMT -0500)
Weslaco

Weather History for KT65 - December, 2012

Change the Weather History Date:

Sunday, December 9, 2012

  Actual Average (KMFE) Record (KMFE)
Temperature  
Mean Temperature 77 °F -  
Max Temperature 84 °F 71 °F 91 °F (2008)
Min Temperature 70 °F 50 °F 34 °F (1978)
Cooling Degree Days 12    
Growing Degree Days 27 (Base 50)    
Moisture  
Dew Point 68 °F    
Average Humidity 76    
Maximum Humidity 91    
Minimum Humidity 53    
Precipitation  
Precipitation 0.00 in - - ()
Sea Level Pressure  
Sea Level Pressure 29.82 in    
Wind  
Wind Speed 8 mph (SSE)    
Max Wind Speed 15 mph    
Max Gust Speed 21 mph    
Visibility 8 miles    
Events      
Averages and records for this station are not official NWS values.
T = Trace of Precipitation, MM = Missing Value Source: NWS Daily Summary

Daily Weather History Graph

Daily Weather History Graph

Search for Another Location

Airport or City:

Trip Planner

Search our weather history database for the weather conditions in past years. The results will help you decide how hot, cold, wet, or windy it might be!

Date:

Astronomy

Dec. 09, 2012 Rise Set
Actual Time 7:08 AM CST 5:40 PM CST
Civil Twilight 6:43 AM CST 6:05 PM CST
Nautical Twilight 6:14 AM CST 6:34 PM CST
Astronomical Twilight 5:46 AM CST 7:02 PM CST
Moon 2:59 AM CST (12/9) 2:34 PM CST (12/9)
Length of Visible Light 11h 22m
Length of Day
10h 32m
Waning Crescent, 18% of the Moon is Illuminated
Dec 9
Waning Crescent
Dec 13
New
Dec 19
First Quarter
Dec 28
Full
Jan 4
Last Quarter

Hourly Weather History & Observations

Time (CST) Temp. Heat Index Dew Point Humidity Pressure Visibility Wind Dir Wind Speed Gust Speed Precip Events Conditions
12:15 AM 71.6 °F - 66.7 °F 85% 29.85 in 10.0 mi SSE 5.8 mph - N/A   Unknown
12:35 AM 71.6 °F - 66.7 °F 85% 29.84 in 10.0 mi SSE 5.8 mph - N/A   Unknown
12:55 AM 71.6 °F - 67.1 °F 86% 29.83 in 10.0 mi SSE 5.8 mph - N/A   Unknown
1:15 AM 71.6 °F - 67.5 °F 87% 29.83 in 10.0 mi SE 6.9 mph - N/A   Unknown
1:35 AM 71.6 °F - 67.5 °F 87% 29.83 in 7.0 mi SSE 6.9 mph - N/A   Unknown
1:55 AM 71.6 °F - 67.6 °F 87% 29.83 in 7.0 mi SSE 6.9 mph - N/A   Unknown
2:15 AM 71.4 °F - 67.6 °F 88% 29.82 in 7.0 mi SSE 4.6 mph - N/A   Unknown
2:35 AM 71.2 °F - 67.6 °F 88% 29.82 in 7.0 mi SSE 4.6 mph - N/A   Unknown
2:55 AM 70.9 °F - 67.6 °F 89% 29.82 in 5.0 mi SSE 3.5 mph - N/A   Mist
3:15 AM 71.1 °F - 68.0 °F 90% 29.82 in 5.0 mi SSE 5.8 mph - N/A   Mist
3:35 AM 71.2 °F - 68.2 °F 90% 29.82 in 5.0 mi SSE 5.8 mph - N/A   Mist
3:55 AM 71.6 °F - 68.2 °F 89% 29.81 in 5.0 mi SSE 6.9 mph - N/A   Mist
4:15 AM 71.6 °F - 68.4 °F 89% 29.82 in 4.0 mi SSE 5.8 mph - N/A   Mist
4:35 AM 71.6 °F - 68.5 °F 90% 29.82 in 4.0 mi SSE 5.8 mph - N/A   Mist
4:55 AM 71.8 °F - 68.9 °F 91% 29.82 in 4.0 mi SSE 5.8 mph - N/A   Mist
5:15 AM 71.6 °F - 68.4 °F 89% 29.82 in 4.0 mi SSE 5.8 mph - N/A   Mist
5:35 AM 71.6 °F - 68.7 °F 91% 29.82 in 4.0 mi SSE 6.9 mph - N/A   Mist
5:55 AM 71.8 °F - 68.9 °F 91% 29.82 in 4.0 mi SSE 8.1 mph - N/A   Mist
6:15 AM 71.6 °F - 68.5 °F 90% 29.83 in 4.0 mi SSE 6.9 mph - N/A   Mist
6:35 AM 71.6 °F - 68.5 °F 90% 29.84 in 4.0 mi SSE 6.9 mph - N/A   Mist
6:55 AM 71.6 °F - 68.5 °F 90% 29.84 in 3.0 mi SSE 4.6 mph - N/A   Mist
7:15 AM 71.8 °F - 68.9 °F 91% 29.85 in 4.0 mi SSE 6.9 mph - N/A   Mist
7:35 AM 71.8 °F - 68.7 °F 90% 29.85 in 2.5 mi SSE 4.6 mph - N/A   Mist
7:55 AM 72.5 °F - 69.3 °F 90% 29.85 in 2.5 mi SSE 6.9 mph - N/A   Mist
8:15 AM 73.4 °F - 69.6 °F 88% 29.85 in 3.0 mi SSE 8.1 mph - N/A   Mist
8:35 AM 74.3 °F - 69.8 °F 86% 29.86 in 4.0 mi SSE 6.9 mph - N/A   Mist
8:55 AM 75.4 °F - 70.0 °F 83% 29.88 in 5.0 mi South 10.4 mph - N/A   Haze
9:15 AM 76.5 °F - 69.8 °F 80% 29.88 in 7.0 mi South 11.5 mph - N/A   Unknown
9:35 AM 77.4 °F - 69.3 °F 76% 29.88 in 7.0 mi South 10.4 mph 18.4 mph N/A   Unknown
9:55 AM 78.8 °F - 69.1 °F 72% 29.88 in 7.0 mi South 12.7 mph 18.4 mph N/A   Unknown
10:15 AM 78.6 °F - 68.4 °F 71% 29.89 in 10.0 mi South 15.0 mph 19.6 mph N/A   Unknown
10:35 AM 78.6 °F - 68.0 °F 70% 29.89 in 10.0 mi South 11.5 mph - N/A   Unknown
10:55 AM 81.3 °F 83.8 °F 67.1 °F 62% 29.87 in 10.0 mi South 13.8 mph 19.6 mph N/A   Unknown
11:15 AM 81.5 °F 83.7 °F 66.6 °F 60% 29.88 in 10.0 mi South 12.7 mph 19.6 mph N/A   Unknown
11:35 AM 82.0 °F 84.3 °F 66.6 °F 59% 29.86 in 10.0 mi SSE 12.7 mph 16.1 mph N/A   Unknown
11:55 AM 83.3 °F 85.7 °F 66.7 °F 57% 29.85 in 10.0 mi SSE 13.8 mph 17.3 mph N/A   Unknown
12:15 PM 82.9 °F 85.2 °F 66.2 °F 57% 29.83 in 10.0 mi SSE 12.7 mph 19.6 mph N/A   Unknown
12:35 PM 84.4 °F 86.3 °F 65.7 °F 53% 29.82 in 10.0 mi South 15.0 mph 20.7 mph N/A   Unknown
1:15 PM 83.5 °F 85.3 °F 65.1 °F 54% 29.80 in 10.0 mi South 13.8 mph - N/A   Unknown
1:35 PM 83.5 °F 85.3 °F 65.3 °F 54% 29.79 in 7.0 mi South 11.5 mph 20.7 mph N/A   Unknown
1:55 PM 83.5 °F 85.3 °F 65.3 °F 54% 29.78 in 7.0 mi South 11.5 mph 18.4 mph N/A   Unknown
2:15 PM 83.1 °F 85.0 °F 65.3 °F 55% 29.78 in 10.0 mi South 13.8 mph 18.4 mph N/A   Unknown
2:35 PM 82.4 °F 84.4 °F 65.7 °F 57% 29.78 in 10.0 mi South 12.7 mph 18.4 mph N/A   Unknown
2:55 PM 82.6 °F 84.7 °F 65.8 °F 57% 29.77 in 7.0 mi SSE 13.8 mph 19.6 mph N/A   Unknown
3:15 PM 83.3 °F 85.5 °F 66.0 °F 56% 29.76 in 10.0 mi SSE 12.7 mph 17.3 mph N/A   Unknown
3:35 PM 82.6 °F 84.7 °F 66.0 °F 57% 29.76 in 10.0 mi South 15.0 mph 18.4 mph N/A   Unknown
3:55 PM 82.6 °F 84.9 °F 66.2 °F 58% 29.76 in 7.0 mi SSE 12.7 mph 18.4 mph N/A   Unknown
4:15 PM 82.0 °F 84.3 °F 66.4 °F 59% 29.75 in 10.0 mi SSE 10.4 mph 18.4 mph N/A   Unknown
4:35 PM 81.3 °F 83.6 °F 66.6 °F 61% 29.75 in 10.0 mi SSE 15.0 mph - N/A   Unknown
4:55 PM 80.2 °F 82.5 °F 66.7 °F 63% 29.75 in 10.0 mi SSE 11.5 mph 19.6 mph N/A   Unknown
5:15 PM 79.5 °F - 66.9 °F 65% 29.75 in 10.0 mi SSE 11.5 mph 19.6 mph N/A   Unknown
5:35 PM 78.8 °F - 66.9 °F 67% 29.76 in 10.0 mi SSE 10.4 mph 16.1 mph N/A   Unknown
5:55 PM 78.3 °F - 66.9 °F 68% 29.76 in 10.0 mi SSE 6.9 mph - N/A   Unknown
6:15 PM 77.5 °F - 67.1 °F 70% 29.77 in 10.0 mi SSE 8.1 mph - N/A   Unknown
6:35 PM 77.2 °F - 67.3 °F 71% 29.78 in 10.0 mi SSE 9.2 mph - N/A   Unknown
6:55 PM 77.0 °F - 67.5 °F 72% 29.78 in 10.0 mi SSE 9.2 mph - N/A   Unknown
7:15 PM 76.6 °F - 67.5 °F 73% 29.78 in 10.0 mi SSE 8.1 mph - N/A   Unknown
7:35 PM 76.1 °F - 67.6 °F 75% 29.78 in 10.0 mi SSE 10.4 mph - N/A   Unknown
7:55 PM 76.1 °F - 68.0 °F 76% 29.79 in 10.0 mi SSE 9.2 mph 16.1 mph N/A   Unknown
8:15 PM 75.9 °F - 68.2 °F 77% 29.80 in 10.0 mi SSE 8.1 mph - N/A   Unknown
8:35 PM 75.6 °F - 68.4 °F 78% 29.80 in 10.0 mi SSE 9.2 mph - N/A   Unknown
8:55 PM 75.6 °F - 68.9 °F 80% 29.80 in 10.0 mi SSE 10.4 mph - N/A   Unknown
9:15 PM 75.4 °F - 68.9 °F 80% 29.80 in 10.0 mi SSE 6.9 mph - N/A   Unknown
9:35 PM 75.2 °F - 69.1 °F 81% 29.81 in 10.0 mi SSE 5.8 mph - N/A   Unknown
9:55 PM 75.2 °F - 69.3 °F 82% 29.82 in 10.0 mi South 6.9 mph - N/A   Unknown
10:15 PM 74.7 °F - 69.3 °F 83% 29.81 in 10.0 mi SSE 6.9 mph - N/A   Unknown
10:35 PM 74.7 °F - 69.4 °F 84% 29.83 in 10.0 mi South 6.9 mph - N/A   Unknown
10:55 PM 74.3 °F - 69.4 °F 85% 29.82 in 10.0 mi SSE 6.9 mph - N/A   Unknown
11:15 PM 74.7 °F - 69.8 °F 85% 29.82 in 7.0 mi South 5.8 mph - N/A   Unknown
11:35 PM 74.8 °F - 69.8 °F 84% 29.81 in 10.0 mi SSE 10.4 mph - N/A   Unknown
11:55 PM 75.2 °F - 69.8 °F 83% 29.81 in 10.0 mi South 10.4 mph - N/A   Unknown